This is the latest recevied weather packets stored in our database for station/object N3FAA. If no packets are shown the sender has not sent any weather packets the latest 10 day(s).
| Time | Temp. | Humidity | Pressure | Rain* | Wind** | Luminosity | Snow |
|---|---|---|---|---|---|---|---|
| 1777808350 | 13.33° C | 54% | 1008.8 hPa | 0 mm | - | 0 W/m² | - |
| 1777808044 | 13.33° C | 50% | 1008.8 hPa | 0 mm | - | 0 W/m² | - |
| 1777807741 | 13.33° C | 49% | 1008.8 hPa | 0 mm | - | 0 W/m² | - |
| 1777807439 | 13.89° C | 48% | 1008.8 hPa | 0 mm | - | 0 W/m² | - |
| 1777807134 | 14.44° C | 49% | 1008.7 hPa | 0 mm | - | 0 W/m² | - |
| 1777806832 | 14.44° C | 51% | 1008.6 hPa | 0 mm | - | 0 W/m² | - |
| 1777806527 | 14.44° C | 49% | 1008.8 hPa | 0 mm | - | 0 W/m² | - |
| 1777806224 | 14.44° C | 48% | 1008.8 hPa | 0 mm | - | 0 W/m² | - |
| 1777805920 | 14.44° C | 47% | 1008.7 hPa | 0 mm | - | 0 W/m² | - |
| 1777805618 | 14.44° C | 46% | 1008.9 hPa | 0 mm | - | 0 W/m² | - |
| 1777805316 | 14.44° C | 45% | 1008.7 hPa | 0 mm | - | 0 W/m² | - |
| 1777805013 | 14.44° C | 45% | 1008.7 hPa | 0 mm | - | 0 W/m² | - |
| 1777804710 | 15° C | 44% | 1008.7 hPa | 0 mm | - | 0 W/m² | - |
| 1777804408 | 15° C | 45% | 1008.8 hPa | 0 mm | - | 0 W/m² | - |
| 1777804105 | 15° C | 44% | 1008.5 hPa | 0 mm | - | 0 W/m² | - |
| 1777803802 | 15.56° C | 44% | 1008.5 hPa | 0 mm | - | 0 W/m² | - |
| 1777803497 | 15° C | 45% | 1008.4 hPa | 0 mm | - | 0 W/m² | - |
| 1777803196 | 15° C | 46% | 1008.5 hPa | 0 mm | - | 0 W/m² | - |
| 1777802892 | 15.56° C | 45% | 1008.7 hPa | 0 mm | - | 0 W/m² | - |
| 1777802590 | 14.44° C | 48% | 1008.7 hPa | 0 mm | - | 0 W/m² | - |
| 1777802287 | 13.89° C | 48% | 1008.7 hPa | 0 mm | - | 0 W/m² | - |
| 1777801986 | 13.89° C | 47% | 1008.5 hPa | 0 mm | - | 0 W/m² | - |
| 1777801682 | 14.44° C | 47% | 1008.7 hPa | 0 mm | - | 0 W/m² | - |
| 1777801380 | 14.44° C | 47% | 1008.7 hPa | 0 mm | - | 0 W/m² | - |
| 1777801076 | 14.44° C | 47% | 1009.2 hPa | 0 mm | - | 0 W/m² | - |
* Rain latest hour (hover to see other rain measurements)
** Current wind speed in m/s (hover to see current wind gust speed)